Flag for Germany Weather past 2 weeks in Verden (Aller), Lower Saxony, Germany

37 °F

Low clouds.

Feels Like: 30 °F
Forecast: 37 / 43 °F
Wind: 10 mph from Southwest

Location: Bremen Airport

Current Time: Nov 25, 2015 at 3:21:47 AM

Latest Report: Nov 25, 2015 at 2:50 AM

Visibility: N/A

Pressure: 29.65 "Hg

Humidity: 93%

Dew point: 36 °F

Location of Verden (Aller)Location

Historic Weather in Verden (Aller) — Graph


Verden (Aller) temperature yesterday

Maximum temperature yesterday: 39 °F (at 12:50 AM)
Minimum temperature yesterday: 36 °F (at 3:50 PM)
Average temperature yesterday: 37 °F

Past Weeks' High & Low Weather Summary

High59 °F (Nov 10, 11:20 AM)100% (Nov 10, 8:20 PM)30.24 "Hg (Nov 10, 8:20 PM)
Low28 °F (Nov 22, 12:20 AM)57% (Nov 23, 1:20 PM)29.33 "Hg (Nov 21, 3:20 AM)
Average48 °F87%29.83 "Hg
* Reported Nov 10 2:20 AM — Nov 25 2:20 AM, Verden (Aller), Weather by CustomWeather, © 2015

Note: Actual official high and low records may vary slightly from our data, if they occured in-between our weather recording intervals... More about our weather records


Verden (Aller) weather history for previous 24 hours

Time TempWeatherWind HumidityBarometerVisibility
2:20 AM
Wed, Nov 25
37 °FLow clouds.10 mph93%29.65 "HgN/A
12:50 AM37 °FDrizzle. Low clouds.10 mph93%29.68 "HgN/A
12:20 AM36 °FDrizzle. Low clouds.10 mph100%29.68 "HgN/A
11:50 PM
Tue, Nov 24
36 °FDrizzle. Low clouds.12 mph100%29.68 "Hg5 mi
11:20 PM36 °FDrizzle. Low clouds.13 mph93%29.71 "HgN/A
10:50 PM36 °FDrizzle. Low clouds.14 mph93%29.71 "HgN/A
10:20 PM36 °FPassing clouds.13 mph93%29.71 "HgN/A
9:50 PM36 °FPassing clouds.13 mph93%29.71 "HgN/A
9:20 PM36 °FLight rain. Passing clouds.12 mph93%29.74 "HgN/A
8:50 PM36 °FLight rain. Passing clouds.13 mph93%29.74 "HgN/A
8:20 PM36 °FLight rain. Passing clouds.15 mph93%29.74 "Hg5 mi
7:50 PM36 °FLight rain. Passing clouds.14 mph93%29.77 "Hg5 mi
7:20 PM36 °FLight rain. Passing clouds.14 mph93%29.77 "Hg5 mi
6:50 PM36 °FLight rain. Passing clouds.14 mph93%29.77 "Hg4 mi
6:20 PM36 °FLight rain. Passing clouds.15 mph93%29.80 "Hg4 mi
5:50 PM36 °FLight rain. Passing clouds.16 mph93%29.80 "Hg4 mi
5:20 PM36 °FLight rain. Passing clouds.14 mph93%29.83 "Hg4 mi
4:50 PM36 °FLight rain. Passing clouds.16 mph93%29.83 "Hg4 mi
4:20 PM36 °FLight rain. Passing clouds.16 mph93%29.83 "Hg5 mi
3:50 PM36 °FLight rain. Mostly cloudy.20 mph93%29.83 "Hg5 mi
3:20 PM37 °FLight rain. More clouds than sun.20 mph87%29.86 "Hg6 mi
2:50 PM37 °FLight rain. Overcast.21 mph87%29.86 "HgN/A
2:20 PM39 °FLight rain. Overcast.25 mph75%29.89 "HgN/A
1:50 PM39 °FLight rain. Overcast.20 mph75%29.89 "HgN/A
1:20 PM39 °FLight rain. Partly sunny.20 mph75%29.89 "HgN/A
12:50 PM39 °FLight rain. Partly sunny.21 mph70%29.92 "HgN/A
12:20 PM39 °FLight rain. Partly sunny.17 mph70%29.95 "HgN/A
11:50 AM39 °FLight rain. Partly sunny.18 mph70%29.95 "HgN/A
11:20 AM39 °FSunny.17 mph70%29.98 "Hg10 mi
10:50 AM39 °FSunny.17 mph70%29.98 "Hg10 mi
10:20 AM39 °FSunny.15 mph65%30.01 "Hg10 mi
9:50 AM39 °FSunny.14 mph65%30.01 "Hg10 mi
9:20 AM39 °FPartly sunny.15 mph65%30.01 "HgN/A
8:50 AM39 °FPassing clouds.14 mph70%30.04 "HgN/A
7:20 AM37 °FClear.13 mph75%30.04 "Hg10 mi
6:50 AM37 °FClear.15 mph75%30.04 "Hg10 mi
6:20 AM37 °FClear.13 mph75%30.07 "Hg10 mi
5:50 AM37 °FClear.14 mph75%30.07 "Hg10 mi
5:20 AM37 °FPassing clouds.14 mph81%30.07 "HgN/A
4:50 AM37 °FClear.13 mph81%30.07 "Hg10 mi
3:50 AM37 °FPassing clouds.12 mph81%30.09 "HgN/A
3:20 AM37 °FClear.10 mph87%30.09 "Hg10 mi
Weather by CustomWeather, © 2015

See weather overviewHow to use our weather pages